• In Czech Republic
  • List of Countries
  • For 7 days
  • Water Temperature
  • Satellite Maps
  • Weather Map
  • Weather Widgets
  • user-avatar
    Login

    Hourly Weather Nasaud

    Today, 24 June, Sunday

    Time Temperature Precipitation Wind Pressure Humidity
    00:00 +9°C° 0 mm 1 mps 734 mmHg 90%
    01:00 +9°C° 0 mm 1 mps 734 mmHg 90%
    02:00 +8°C° 0 mm 1 mps 734 mmHg 90%
    03:00 +8°C° 0 mm 1 mps 734 mmHg 90%
    04:00 +8°C° 0 mm 1 mps 734 mmHg 90%
    05:00 +8°C° 0 mm 1 mps 734 mmHg 90%
    06:00 +10°C° 0 mm 1 mps 734 mmHg 84%
    07:00 +12°C° 0 mm 1 mps 734 mmHg 78%
    08:00 +14°C° 0 mm 2 mps 734 mmHg 73%
    09:00 +15°C° 0.1 mm 2 mps 734 mmHg 69%
    10:00 +16°C° 0.1 mm 2 mps 733 mmHg 65%
    11:00 +18°C° 0.1 mm 2 mps 733 mmHg 61%
    12:00 +18°C° 0.3 mm 2 mps 733 mmHg 60%
    13:00 +19°C° 0.3 mm 2 mps 733 mmHg 59%
    14:00 +19°C° 0.3 mm 2 mps 733 mmHg 59%
    15:00 +19°C° 0.5 mm 2 mps 733 mmHg 61%
    16:00 +19°C° 0.5 mm 2 mps 732 mmHg 64%
    17:00 +18°C° 0.5 mm 2 mps 732 mmHg 67%
    18:00 +18°C° 0.2 mm 1 mps 732 mmHg 72%
    19:00 +16°C° 0.2 mm 1 mps 732 mmHg 77%
    20:00 +14°C° 0.2 mm 1 mps 732 mmHg 83%
    21:00 +13°C° 0 mm 1 mps 732 mmHg 85%
    22:00 +12°C° 0 mm 1 mps 733 mmHg 87%
    23:00 +11°C° 0 mm 1 mps 733 mmHg 89%

    Tomorrow, 25 June, Monday

    Time Temperature Precipitation Wind Pressure Humidity
    00:00 +11°C° 0 mm 1 mps 733 mmHg 89%
    01:00 +11°C° 0 mm 1 mps 733 mmHg 90%
    02:00 +10°C° 0 mm 1 mps 733 mmHg 91%
    03:00 +10°C° 0 mm 1 mps 733 mmHg 91%
    04:00 +10°C° 0 mm 1 mps 733 mmHg 91%
    05:00 +10°C° 0 mm 1 mps 733 mmHg 91%
    06:00 +12°C° 0 mm 1 mps 734 mmHg 85%
    07:00 +15°C° 0 mm 1 mps 734 mmHg 78%
    08:00 +18°C° 0 mm 1 mps 734 mmHg 71%
    09:00 +19°C° 0.2 mm 1 mps 734 mmHg 67%
    10:00 +20°C° 0.2 mm 1 mps 734 mmHg 62%
    11:00 +22°C° 0.2 mm 1 mps 734 mmHg 58%
    12:00 +22°C° 0.2 mm 1 mps 734 mmHg 55%
    13:00 +23°C° 0.2 mm 1 mps 734 mmHg 53%
    14:00 +24°C° 0.2 mm 1 mps 734 mmHg 51%
    15:00 +23°C° 0.1 mm 1 mps 734 mmHg 53%
    16:00 +23°C° 0.1 mm 1 mps 734 mmHg 54%
    17:00 +23°C° 0.1 mm 1 mps 734 mmHg 56%
    18:00 +21°C° 0.1 mm 1 mps 734 mmHg 63%
    19:00 +19°C° 0.1 mm 1 mps 734 mmHg 71%
    20:00 +18°C° 0.1 mm 1 mps 734 mmHg 78%
    21:00 +16°C° 0 mm 1 mps 734 mmHg 80%
    22:00 +15°C° 0 mm 1 mps 734 mmHg 83%
    23:00 +14°C° 0 mm 1 mps 735 mmHg 85%

    Day after tomorrow, 26 June, Tuesday

    Time Temperature Precipitation Wind Pressure Humidity
    00:00 +13°C° 0 mm 1 mps 735 mmHg 86%
    01:00 +13°C° 0 mm 1 mps 734 mmHg 86%
    02:00 +13°C° 0 mm 1 mps 734 mmHg 87%
    03:00 +13°C° 0 mm 1 mps 734 mmHg 87%
    04:00 +12°C° 0 mm 1 mps 734 mmHg 87%
    05:00 +12°C° 0 mm 1 mps 734 mmHg 87%
    06:00 +15°C° 0 mm 1 mps 734 mmHg 80%
    07:00 +16°C° 0 mm 0 mps 735 mmHg 73%
    08:00 +19°C° 0 mm 0 mps 735 mmHg 66%
    09:00 +20°C° 0.1 mm 0 mps 735 mmHg 63%
    10:00 +23°C° 0.1 mm 1 mps 735 mmHg 60%
    11:00 +24°C° 0.1 mm 1 mps 734 mmHg 56%
    12:00 +25°C° 0.5 mm 1 mps 734 mmHg 58%
    13:00 +25°C° 0.5 mm 1 mps 734 mmHg 60%
    14:00 +25°C° 0.5 mm 1 mps 734 mmHg 61%
    15:00 +25°C° 0.7 mm 1 mps 733 mmHg 63%
    16:00 +24°C° 0.7 mm 1 mps 733 mmHg 65%
    17:00 +24°C° 0.7 mm 1 mps 733 mmHg 66%
    18:00 +22°C° 0.4 mm 1 mps 733 mmHg 71%
    19:00 +21°C° 0.4 mm 1 mps 733 mmHg 75%
    20:00 +19°C° 0.4 mm 1 mps 733 mmHg 80%
    21:00 +18°C° 0 mm 1 mps 733 mmHg 82%
    22:00 +18°C° 0 mm 1 mps 733 mmHg 84%
    23:00 +16°C° 0 mm 1 mps 733 mmHg 85%

    27 June, Wednesday

    Time Temperature Precipitation Wind Pressure Humidity
    00:00 +15°C° 0 mm 1 mps 733 mmHg 86%
    01:00 +15°C° 0 mm 1 mps 733 mmHg 87%
    02:00 +14°C° 0 mm 1 mps 733 mmHg 88%
    03:00 +14°C° 0 mm 1 mps 733 mmHg 88%
    04:00 +14°C° 0 mm 1 mps 733 mmHg 88%
    05:00 +14°C° 0 mm 1 mps 733 mmHg 88%
    06:00 +16°C° 0 mm 1 mps 733 mmHg 82%
    07:00 +19°C° 0 mm 1 mps 733 mmHg 76%
    08:00 +19°C° 0 mm 0 mps 733 mmHg 69%
    09:00 +21°C° 0.1 mm 0 mps 733 mmHg 66%
    10:00 +24°C° 0.1 mm 1 mps 732 mmHg 62%
    11:00 +25°C° 0.1 mm 1 mps 732 mmHg 59%
    12:00 +25°C° 0.5 mm 1 mps 732 mmHg 60%
    13:00 +25°C° 0.5 mm 1 mps 732 mmHg 61%
    14:00 +25°C° 0.5 mm 1 mps 731 mmHg 62%
    15:00 +25°C° 0.6 mm 1 mps 731 mmHg 65%
    16:00 +24°C° 0.6 mm 1 mps 731 mmHg 68%
    17:00 +24°C° 0.6 mm 1 mps 731 mmHg 71%
    18:00 +23°C° 0.5 mm 1 mps 731 mmHg 76%
    19:00 +21°C° 0.5 mm 1 mps 731 mmHg 80%
    20:00 +20°C° 0.5 mm 1 mps 731 mmHg 85%
    21:00 +19°C° 0.3 mm 1 mps 731 mmHg 87%
    22:00 +19°C° 0.3 mm 1 mps 730 mmHg 89%
    23:00 +18°C° 0.3 mm 1 mps 730 mmHg 90%

    28 June, Thursday

    Time Temperature Precipitation Wind Pressure Humidity
    00:00 +18°C° 0.2 mm 1 mps 730 mmHg 91%
    01:00 +18°C° 0.2 mm 1 mps 730 mmHg 92%
    02:00 +16°C° 0.2 mm 1 mps 730 mmHg 93%
    03:00 +16°C° 0.2 mm 1 mps 730 mmHg 93%
    04:00 +16°C° 0.2 mm 1 mps 729 mmHg 94%
    05:00 +15°C° 0.2 mm 0 mps 729 mmHg 94%
    06:00 +16°C° 0.1 mm 0 mps 729 mmHg 90%
    07:00 +18°C° 0.1 mm 0 mps 729 mmHg 86%
    08:00 +19°C° 0.1 mm 0 mps 729 mmHg 82%
    09:00 +22°C° 0.4 mm 1 mps 729 mmHg 78%
    10:00 +23°C° 0.4 mm 1 mps 729 mmHg 73%
    11:00 +24°C° 0.4 mm 1 mps 729 mmHg 69%
    12:00 +24°C° 0.7 mm 2 mps 729 mmHg 72%
    13:00 +24°C° 0.7 mm 2 mps 728 mmHg 75%
    14:00 +24°C° 0.7 mm 2 mps 728 mmHg 78%
    15:00 +24°C° 0.8 mm 2 mps 728 mmHg 78%
    16:00 +24°C° 0.8 mm 2 mps 728 mmHg 79%
    17:00 +23°C° 0.8 mm 2 mps 728 mmHg 80%
    18:00 +22°C° 0.5 mm 1 mps 728 mmHg 83%
    19:00 +21°C° 0.5 mm 1 mps 728 mmHg 86%
    20:00 +20°C° 0.5 mm 1 mps 728 mmHg 90%
    21:00 +19°C° 0 mm 1 mps 728 mmHg 91%
    22:00 +18°C° 0 mm 1 mps 729 mmHg 91%
    23:00 +16°C° 0 mm 1 mps 729 mmHg 92%

    29 June, Friday

    Time Temperature Precipitation Wind Pressure Humidity
    00:00 +15°C° 0 mm 0 mps 729 mmHg 93%
    01:00 +14°C° 0 mm 0 mps 729 mmHg 93%
    02:00 +14°C° 0 mm 0 mps 729 mmHg 93%
    03:00 +14°C° 0 mm 0 mps 729 mmHg 93%
    04:00 +13°C° 0 mm 0 mps 729 mmHg 93%
    05:00 +13°C° 0 mm 0 mps 729 mmHg 93%
    06:00 +15°C° 0 mm 0 mps 729 mmHg 88%
    07:00 +17°C° 0 mm 0 mps 729 mmHg 84%
    08:00 +19°C° 0 mm 0 mps 730 mmHg 79%
    09:00 +23°C° 0 mm 1 mps 730 mmHg 70%
    10:00 +24°C° 0 mm 1 mps 729 mmHg 61%
    11:00 +26°C° 0 mm 1 mps 729 mmHg 52%
    12:00 +26°C° 0 mm 2 mps 729 mmHg 51%
    13:00 +27°C° 0 mm 2 mps 729 mmHg 49%
    14:00 +27°C° 0 mm 2 mps 729 mmHg 48%
    15:00 +27°C° 0.1 mm 2 mps 729 mmHg 50%
    16:00 +26°C° 0.1 mm 2 mps 729 mmHg 53%
    17:00 +26°C° 0.1 mm 2 mps 728 mmHg 55%
    18:00 +24°C° 0 mm 2 mps 728 mmHg 63%
    19:00 +21°C° 0 mm 2 mps 728 mmHg 72%
    20:00 +20°C° 0 mm 1 mps 728 mmHg 80%
    21:00 +19°C° 0 mm 1 mps 729 mmHg 82%
    22:00 +18°C° 0 mm 1 mps 729 mmHg 85%
    23:00 +16°C° 0 mm 1 mps 729 mmHg 88%
    Show more